NW Arkansas Airport, AR

3:23 PM CDT on May 22, 2017 (GMT -0500)
Northwest Arkansas Regional

Weather History for KXNA - August, 2012

Change the Weather History Date:

Sunday, August 12, 2012

  Actual Average (KVBT) Record (KVBT)
Temperature  
Mean Temperature 80 °F -  
Max Temperature 93 °F 86 °F 102 °F (2010)
Min Temperature 69 °F 64 °F 49 °F (1967)
Cooling Degree Days 15    
Growing Degree Days 30 (Base 50)    
Moisture  
Dew Point 58 °F    
Average Humidity 49    
Maximum Humidity 65    
Minimum Humidity 32    
Precipitation  
Precipitation 0.00 in - - ()
Sea Level Pressure  
Sea Level Pressure 29.91 in    
Wind  
Wind Speed 5 mph (South)    
Max Wind Speed 14 mph    
Max Gust Speed 21 mph    
Visibility 10 miles    
Events Thunderstorm    
Averages and records for this station are not official NWS values.
T = Trace of Precipitation, MM = Missing Value Source: NWS Daily Summary

Daily Weather History Graph

Daily Weather History Graph

Search for Another Location

Airport or City:

Trip Planner

Search our weather history database for the weather conditions in past years. The results will help you decide how hot, cold, wet, or windy it might be!

Date:

Astronomy

Aug. 12, 2012 Rise Set
Actual Time 6:33 AM CDT 8:10 PM CDT
Civil Twilight 6:05 AM CDT 8:37 PM CDT
Nautical Twilight 5:32 AM CDT 9:10 PM CDT
Astronomical Twilight 4:57 AM CDT 9:45 PM CDT
Moon 1:50 AM CDT (8/12) 4:32 PM CDT (8/12)
Length of Visible Light 14h 32m
Length of Day
13h 37m
Waning Crescent, 24% of the Moon is Illuminated
Aug 12
Waning Crescent
Aug 17
New
Aug 24
First Quarter
Aug 31
Full
Sep 8
Last Quarter

Hourly Weather History & Observations

Time (CDT) Temp. Heat Index Dew Point Humidity Pressure Visibility Wind Dir Wind Speed Gust Speed Precip Events Conditions
12:53 AM 69.1 °F - 52.0 °F 54% 29.95 in 10.0 mi Calm Calm - N/A   Clear
1:53 AM 69.1 °F - 52.0 °F 54% 29.94 in 10.0 mi Calm Calm - N/A   Clear
2:53 AM 69.1 °F - 52.0 °F 54% 29.94 in 10.0 mi Calm Calm - N/A   Clear
3:53 AM 69.1 °F - 54.0 °F 58% 29.94 in 10.0 mi Calm Calm - N/A   Clear
4:53 AM 69.1 °F - 55.0 °F 61% 29.94 in 10.0 mi South 3.5 mph - N/A   Clear
5:53 AM 69.1 °F - 55.9 °F 63% 29.97 in 10.0 mi Calm Calm - N/A   Scattered Clouds
6:53 AM 69.1 °F - 57.0 °F 65% 29.96 in 10.0 mi SSE 6.9 mph - N/A   Mostly Cloudy
7:53 AM 73.0 °F - 55.9 °F 55% 29.97 in 10.0 mi SSE 8.1 mph - N/A   Clear
8:53 AM 75.9 °F - 55.9 °F 50% 29.96 in 10.0 mi South 10.4 mph - N/A   Mostly Cloudy
9:53 AM 79.0 °F - 57.0 °F 47% 29.96 in 10.0 mi South 12.7 mph - N/A   Clear
10:53 AM 80.1 °F 80.6 °F 57.9 °F 47% 29.95 in 10.0 mi South 12.7 mph - N/A   Partly Cloudy
11:53 AM 81.0 °F 81.6 °F 60.1 °F 49% 29.94 in 10.0 mi South 11.5 mph - N/A   Partly Cloudy
12:53 PM 84.0 °F 84.4 °F 61.0 °F 46% 29.93 in 10.0 mi SSW 10.4 mph - N/A   Clear
1:53 PM 86.0 °F 86.1 °F 61.0 °F 43% 29.92 in 10.0 mi SSW 6.9 mph - N/A   Partly Cloudy
2:53 PM 88.0 °F 87.6 °F 60.1 °F 39% 29.89 in 10.0 mi South 13.8 mph 19.6 mph N/A   Scattered Clouds
3:53 PM 91.0 °F 90.2 °F 59.0 °F 34% 29.87 in 10.0 mi SSW 12.7 mph 19.6 mph N/A   Partly Cloudy
4:53 PM 91.9 °F 91.2 °F 59.0 °F 33% 29.84 in 10.0 mi South 12.7 mph - N/A   Clear
5:53 PM 91.9 °F 90.8 °F 57.9 °F 32% 29.84 in 10.0 mi South 10.4 mph 20.7 mph N/A   Overcast
6:53 PM 91.0 °F 90.5 °F 60.1 °F 35% 29.84 in 10.0 mi South 12.7 mph - N/A   Mostly Cloudy
7:53 PM 88.0 °F 87.6 °F 60.1 °F 39% 29.85 in 10.0 mi South 5.8 mph - N/A   Scattered Clouds
8:53 PM 82.9 °F 83.2 °F 60.1 °F 46% 29.85 in 10.0 mi South 5.8 mph - N/A   Clear
9:53 PM 81.0 °F 81.7 °F 61.0 °F 50% 29.87 in 10.0 mi South 4.6 mph - N/A   Clear
10:53 PM 80.1 °F 81.2 °F 62.1 °F 54% 29.85 in 10.0 mi Calm Calm - N/A   Clear
11:19 PM 78.8 °F - 62.6 °F 57% 29.92 in 10.0 mi South 5.8 mph - N/A Thunderstorm Scattered Clouds
11:53 PM 78.1 °F - 63.0 °F 60% 29.88 in 10.0 mi South 13.8 mph - N/A Thunderstorm Partly Cloudy